Location: Asheville, NC
(35.6000°N, 82.5500°W)
Time: 10:16:36
(UTC-04:00)

STARS - Pass Details

Date: 06 January 2018
Orbit: 624 x 642 km, 98.3° (Epoch: 23 April)

Event Time Altitude Azimuth Distance (km) Brightness Sun altitude
Rises 06:14:15 0° 183° (S) 2,895 ? -17.1°
Reaches altitude 10° 06:16:32 10° 190° (S) 1,990 ? -16.6°
Maximum altitude 06:20:36 40° 261° (W) 919 ? -15.8°
Enters shadow 06:23:02 21° 319° (NW) 1,400 ? -15.4°
